BEIDOU-3 IGSO-2

Last updated on Mon Feb 16 2026 00:02:50 GMT+0000 (Coordinated Universal Time)

1 44337U 19035A 26045.89189385 -.00000163 00000+0 00000+0 0 9996 2 44337 55.2350 159.9386 0038541 205.2069 217.4250 1.00251563 24447
UTC large
Height (km)
Speed (km/s)
/
Latitude / Longitude
Inclination (degrees)
Orbital Period (minutes)
Azimuth
Elevation
Range (km)
Doppler Factor

Next 0 passes for location: London (51.5072 / 0.1276)

Sorry there are no passes over London.